TimeHST,TemperatureF,Dew PointF,Humidity,Sea Level PressureIn,VisibilityMPH,Wind Direction,Wind SpeedMPH,Gust SpeedMPH,PrecipitationIn,Events,Conditions,WindDirDegrees,DateUTC
12:56 AM,72.0,66.9,84,30.01,10.0,NE,10.4,-,0.00,,Scattered Clouds,40,2013-08-28 10:56:00
1:56 AM,70.9,68.0,91,29.99,10.0,NE,15.0,-,0.00,,Clear,40,2013-08-28 11:56:00
2:56 AM,70.9,66.9,87,29.98,10.0,NE,10.4,-,N/A,,Partly Cloudy,40,2013-08-28 12:56:00
3:56 AM,72.0,68.0,87,29.98,10.0,NNE,6.9,-,N/A,,Mostly Cloudy,30,2013-08-28 13:56:00
4:26 AM,71.6,68.0,88,30.05,10.0,NE,6.9,-,0.00,,Mostly Cloudy,40,2013-08-28 14:26:00
4:56 AM,71.6,68.0,88,30.04,10.0,NE,9.2,-,N/A,Rain,Light Rain,40,2013-08-28 14:56:00
5:56 AM,70.9,68.0,91,29.98,10.0,NE,12.7,-,0.00,,Partly Cloudy,50,2013-08-28 15:56:00
6:56 AM,72.0,68.0,87,29.99,10.0,NE,9.2,-,N/A,,Clear,50,2013-08-28 16:56:00
7:56 AM,77.0,65.8,68,30.00,10.0,NE,5.8,-,N/A,,Clear,40,2013-08-28 17:56:00
8:56 AM,79.0,65.8,64,29.99,10.0,NNE,9.2,-,N/A,,Mostly Cloudy,30,2013-08-28 18:56:00
9:34 AM,78.8,64.4,61,30.06,10.0,NNE,11.5,-,N/A,,Scattered Clouds,20,2013-08-28 19:34:00
9:56 AM,82.9,64.9,54,29.99,10.0,NE,11.5,-,N/A,,Partly Cloudy,40,2013-08-28 19:56:00
10:56 AM,81.9,64.9,56,29.98,10.0,NE,6.9,-,N/A,,Scattered Clouds,40,2013-08-28 20:56:00
11:16 AM,80.6,66.2,61,30.04,10.0,Variable,3.5,-,N/A,,Mostly Cloudy,0,2013-08-28 21:16:00
11:37 AM,82.4,64.4,54,30.04,10.0,NE,9.2,-,N/A,,Mostly Cloudy,40,2013-08-28 21:37:00
11:56 AM,86.9,63.0,45,29.95,10.0,NNE,9.2,-,N/A,,Partly Cloudy,30,2013-08-28 21:56:00
12:56 PM,83.8,68.0,59,29.94,10.0,Calm,Calm,-,N/A,,Partly Cloudy,0,2013-08-28 22:56:00
1:56 PM,81.9,68.0,63,29.93,10.0,Variable,3.5,-,N/A,,Partly Cloudy,0,2013-08-28 23:56:00
2:56 PM,86.9,61.9,43,29.90,10.0,NE,15.0,-,N/A,,Clear,40,2013-08-29 00:56:00
3:56 PM,84.9,59.9,43,29.90,10.0,ENE,15.0,-,N/A,,Clear,60,2013-08-29 01:56:00
4:56 PM,81.9,59.0,46,29.91,10.0,NE,15.0,-,N/A,,Clear,40,2013-08-29 02:56:00
5:56 PM,77.9,64.9,64,29.91,10.0,NE,20.7,24.2,N/A,,Clear,40,2013-08-29 03:56:00
6:56 PM,73.9,64.9,73,29.93,10.0,ENE,8.1,-,N/A,,Clear,70,2013-08-29 04:56:00
7:56 PM,74.8,64.9,71,29.93,10.0,NE,9.2,-,N/A,,Clear,40,2013-08-29 05:56:00
8:56 PM,73.9,63.9,71,29.95,10.0,Calm,Calm,-,N/A,,Clear,0,2013-08-29 06:56:00
9:56 PM,74.8,66.9,76,29.94,10.0,North,4.6,-,N/A,,Mostly Cloudy,10,2013-08-29 07:56:00
10:20 PM,73.4,66.2,78,30.02,10.0,NE,11.5,-,N/A,,Mostly Cloudy,50,2013-08-29 08:20:00
10:29 PM,73.4,66.2,78,30.02,10.0,NNE,10.4,-,N/A,,Scattered Clouds,30,2013-08-29 08:29:00
10:56 PM,73.4,66.2,78,30.01,10.0,NE,13.8,-,N/A,,Mostly Cloudy,40,2013-08-29 08:56:00
11:56 PM,72.9,65.8,79,29.92,10.0,NE,6.9,-,N/A,,Mostly Cloudy,50,2013-08-29 09:56:00